#timestamp,LO_Frequency,Hit 
1501873215.5,286046995.2,N
1501873235.3,286046995.6,N
1501873255.1,286046996.0,N
1501873275.9,286046995.5,N
1501873295.7,286046996.4,N
1501873315.5,286046994.9,N
1501873335.4,286046998.0,N
1501873355.2,286046994.9,N
1501873375.0,286046995.3,N
1501873375.9,286046995.3,N
1501873395.8,286046997.0,N
1501873415.6,286046997.6,N
1501873435.4,286046997.2,N
1501873455.3,286046994.9,N
1501873475.1,286046997.3,N
1501873476.0,286046997.3,N
1501873495.8,286046996.1,N
1501873515.7,286046997.9,N
1501873535.5,286046995.4,N
1501873555.3,286046997.5,N
1501873575.2,286046997.9,N
1501873595.9,286046995.7,N
1501873615.7,286046998.0,N
1501873635.5,286046997.8,N
1501873655.4,286046995.2,N
1501873675.2,286046996.1,N
1501873695.0,286046996.1,N
1501873695.9,286046996.1,N
1501873715.8,286046994.9,N
1501873735.6,286046995.7,N
1501873755.4,286046995.2,N
1501873775.3,286046995.6,N
1501873795.1,286046997.8,N
1501873796.0,286046997.8,N
1501873815.8,286046997.6,N
1501873835.7,286046995.3,N
1501873855.5,286046995.6,N
1501873875.3,286046994.9,N
1501873895.1,286046995.1,N
1501873915.9,286046995.8,N
1501873935.7,286046997.0,N
1501873955.5,286046996.8,N
1501873975.4,286046996.6,N
1501873995.2,286046996.9,N
1501874015.0,286046996.6,N
1501874015.9,286046996.6,N
1501874035.8,286046997.1,N
1501874055.6,286046996.6,N
1501874075.4,286046999.2,N
1501874095.3,286046997.2,N
1501874115.1,286046998.6,N
1501874116.0,286046998.6,N
1501874135.8,286046997.0,N
1501874155.7,286046999.1,N
1501874175.5,286046999.5,N
1501874195.3,286046998.3,N
1501874215.1,286046998.5,N
1501874235.9,286046998.3,N
1501874255.7,286047000.5,N
1501874275.5,286047001.1,N
1501874295.4,286047000.7,N
1501874315.2,286046998.4,N
1501874335.0,286046999.3,N
1501874335.9,286046999.3,N
1501874355.8,286047000.9,N
1501874375.6,286046996.6,N
1501874395.4,286046999.3,N
1501874415.3,286046999.2,N
1501874435.1,286046997.2,N
1501874436.0,286046997.2,N
1501874455.8,286046999.3,N
1501874475.7,286046999.1,N
1501874495.5,286046999.2,N
1501874515.3,286046997.4,N
1501874535.1,286046997.8,N
1501874555.9,286046995.2,N
1501874575.7,286046997.9,N
1501874595.5,286046995.5,N
1501874615.4,286046995.9,N
1501874635.2,286046995.1,N
1501874655.0,286046995.1,N
1501874655.9,286046995.1,N
1501874675.8,286046995.4,N
1501874695.6,286046997.4,N
1501874715.4,286046995.1,N
1501874735.3,286046997.9,N
1501874755.1,286046997.4,N
1501874756.0,286046997.4,N
1501874775.8,286046997.6,N
1501874795.6,286046997.4,N
1501874815.5,286046997.5,N
1501874835.3,286046996.9,N
1501874855.1,286046997.9,N
1501874875.9,286046997.0,N
1501874895.7,286046997.2,N
1501874915.5,286046997.2,N
1501874935.4,286046996.5,N
1501874955.2,286046997.5,N
1501874975.0,286046995.4,N
1501874975.9,286046995.4,N
1501874995.8,286046997.6,N
1501875015.6,286046994.9,N
1501875035.4,286046996.8,N
1501875055.3,286046999.4,N
1501875075.1,286046996.5,N
1501875076.0,286046996.5,N
1501875095.8,286046997.4,N
1501875115.6,286046996.9,N
1501875135.5,286046996.6,N
1501875155.3,286046995.4,N
1501875175.1,286046996.6,N
1501875195.9,286046998.0,N
1501875215.7,286046996.7,N
1501875235.5,286046999.4,N
1501875255.4,286046999.3,N
1501875275.2,286046998.6,N
1501875295.0,286046998.3,N
1501875295.9,286046998.3,N
1501875315.8,286047000.0,N
1501875335.6,286047000.9,N
1501875355.4,286047000.5,N
1501875375.2,286047002.3,N
1501875395.1,286047002.6,N
1501875396.0,286047002.6,N
1501875415.8,286047000.1,N
1501875435.6,286047002.7,N
1501875455.5,286047002.5,N
1501875475.3,286047002.0,N
1501875495.1,286047004.2,N
1501875515.9,286047001.6,N
1501875535.7,286047001.8,N
1501875555.5,286047002.5,N
1501875575.4,286047002.7,N
1501875595.2,286046999.9,N
1501875615.0,286047002.8,N
1501875615.9,286047002.8,N
1501875635.8,286047001.9,N
1501875655.6,286047001.9,N
1501875675.4,286047002.2,N
1501875695.3,286047000.5,N
1501875715.1,286046999.9,N
1501875716.0,286046999.9,N
1501875735.8,286047002.0,N
1501875755.6,286047001.5,N
1501875775.5,286047001.9,N
1501875795.3,286047000.9,N
1501875815.1,286047002.2,N
1501875835.9,286047002.4,N
1501875855.7,286046999.8,N
1501875875.5,286047000.5,N
1501875895.4,286046999.8,N
1501875915.2,286047000.3,N
1501875935.0,286047002.7,N
1501875935.9,286047002.7,N
1501875955.8,286047002.7,N
1501875975.6,286047001.7,N
1501875995.4,286047001.3,N
1501876015.3,286047002.0,N
1501876035.1,286047001.8,N
1501876036.0,286047001.8,N
1501876055.8,286047002.1,N
1501876075.6,286047001.7,N
1501876095.5,286047004.0,N
1501876115.3,286047004.0,N
1501876135.1,286047005.6,N
1501876155.9,286047003.0,N
1501876175.7,286047003.1,N
1501876195.5,286047005.2,N
1501876215.4,286047003.6,N
1501876235.2,286047003.8,N
1501876255.0,286047003.2,N
1501876255.9,286047003.2,N
1501876275.8,286047003.1,N
1501876295.6,286047003.3,N
1501876315.4,286047003.8,N
1501876335.3,286047004.0,N
1501876355.1,286047001.3,N
1501876356.0,286047001.3,N
1501876375.8,286047003.8,N
1501876395.7,286047005.8,N
1501876415.5,286047003.4,N
1501876435.3,286047003.5,N
1501876455.1,286047003.1,N
1501876475.9,286047003.9,N
1501876495.7,286047003.5,N
1501876515.5,286047005.3,N
1501876535.4,286047005.1,N
1501876555.2,286047003.5,N
1501876575.0,286047003.0,N
1501876575.9,286047003.0,N
1501876595.8,286047004.7,N
1501876615.6,286047005.1,N
1501876635.4,286047005.0,N
1501876655.3,286047007.3,N
1501876675.1,286047005.1,N
1501876676.0,286047005.1,N
1501876695.8,286047006.0,N
1501876715.7,286047004.8,N
1501876735.5,286047005.4,N
1501876755.3,286047003.1,N
1501876775.2,286047005.6,N
1501876795.9,286047007.5,N
